QPF
0.00 0.00 0.00 0.00 0.00 0.00 0.00 0.00 0.00 0.00 0.00 0.00 0.00 0.00 0.00 0.00 0.01 0.01 0.01 0.01 0.02 0.02 0.03 0.03 0.04 0.04 0.04 0.03 0.04 0.03 0.03 0.03 0.05 0.06 0.06 0.06 0.06 0.06 0.05 0.06 0.05 0.04 0.03 0.03
0.01 0.00 0.00 0.00 0.00 0.00 0.00 0.00 0.00 0.00 0.00 0.00 0.00 0.01 0.01 0.01 0.01 0.01 0.01 0.01 0.01 0.01 0.02 0.02 0.01 0.01 0.02 0.03 0.03 0.03 0.03 0.04 0.05 0.06 0.05 0.05 0.06 0.06 0.06 0.05 0.05 0.04 0.03 0.03
0.00 0.00 0.00 0.01 0.00 0.00 0.00 0.00 0.00 0.00 0.00 0.00 0.01 0.02 0.02 0.02 0.02 0.02 0.02 0.01 0.01 0.02 0.02 0.01 0.01 0.01 0.01 0.02 0.03 0.03 0.03 0.03 0.05 0.06 0.04 0.06 0.07 0.07 0.05 0.06 0.04 0.04 0.05 0.04
0.00 0.00 0.00 0.01 0.01 0.01 0.01 0.00 0.00 0.00 0.00 0.01 0.02 0.02 0.02 0.03 0.03 0.03 0.03 0.02 0.02 0.02 0.02 0.01 0.01 0.01 0.01 0.02 0.03 0.03 0.03 0.03 0.05 0.05 0.04 0.04 0.06 0.05 0.04 0.04 0.04 0.04 0.04 0.04
0.01 0.01 0.01 0.01 0.01 0.00 0.00 0.00 0.01 0.01 0.01 0.01 0.02 0.02 0.02 0.01 0.01 0.02 0.01 0.02 0.02 0.02 0.03 0.03 0.02 0.01 0.01 0.03 0.04 0.05 0.03 0.04 0.04 0.03 0.04 0.04 0.04 0.03 0.02 0.02 0.02 0.03 0.03 0.03
0.02 0.01 0.02 0.02 0.01 0.01 0.01 0.01 0.00 0.01 0.01 0.02 0.02 0.01 0.01 0.01 0.00 0.00 0.01 0.01 0.01 0.01 0.02 0.02 0.02 0.02 0.02 0.03 0.02 0.03 0.03 0.04 0.03 0.03 0.03 0.03 0.02 0.03 0.03 0.02 0.02 0.03 0.03 0.03
0.01 0.02 0.02 0.01 0.00 0.01 0.01 0.01 0.01 0.01 0.01 0.02 0.02 0.01 0.01 0.01 0.01 0.01 0.01 0.01 0.02 0.02 0.01 0.01 0.03 0.05 0.04 0.03 0.02 0.02 0.02 0.02 0.02 0.02 0.02 0.02 0.02 0.03 0.03 0.03 0.03 0.03 0.03 0.03
0.01 0.02 0.02 0.01 0.00 0.01 0.01 0.01 0.01 0.01 0.01 0.01 0.01 0.00 0.01 0.02 0.02 0.02 0.01 0.01 0.02 0.02 0.02 0.02 0.06 0.07 0.05 0.03 0.02 0.01 0.01 0.02 0.02 0.02 0.02 0.02 0.02 0.03 0.03 0.03 0.03 0.04 0.04 0.05
0.01 0.01 0.01 0.00 0.00 0.01 0.01 0.02 0.02 0.02 0.02 0.01 0.01 0.01 0.01 0.01 0.01 0.01 0.01 0.01 0.01 0.01 0.01 0.02 0.04 0.04 0.03 0.02 0.01 0.02 0.03 0.04 0.04 0.03 0.03 0.03 0.03 0.03 0.03 0.03 0.04 0.03 0.04 0.06
0.02 0.02 0.01 0.01 0.02 0.02 0.02 0.02 0.02 0.01 0.01 0.01 0.01 0.01 0.01 0.00 0.01 0.01 0.01 0.01 0.01 0.00 0.01 0.02 0.04 0.03 0.02 0.02 0.02 0.03 0.05 0.05 0.05 0.04 0.04 0.04 0.04 0.04 0.05 0.05 0.04 0.03 0.03 0.04
0.02 0.02 0.02 0.02 0.02 0.01 0.01 0.00 0.00 0.01 0.01 0.01 0.01 0.01 0.01 0.01 0.01 0.02 0.01 0.01 0.01 0.01 0.01 0.01 0.02 0.02 0.01 0.02 0.02 0.04 0.05 0.05 0.05 0.05 0.04 0.04 0.05 0.06 0.06 0.06 0.05 0.04 0.03 0.03
0.01 0.01 0.01 0.01 0.01 0.00 0.00 0.00 0.00 0.01 0.01 0.01 0.01 0.01 0.01 0.01 0.01 0.01 0.01 0.02 0.02 0.02 0.01 0.01 0.01 0.01 0.01 0.01 0.02 0.03 0.04 0.03 0.04 0.04 0.05 0.05 0.05 0.05 0.05 0.06 0.06 0.05 0.06 0.05
0.01 0.01 0.00 0.00 0.00 0.00 0.01 0.00 0.00 0.00 0.00 0.00 0.00 0.00 0.00 0.00 0.01 0.02 0.01 0.02 0.02 0.02 0.01 0.02 0.01 0.01 0.01 0.02 0.02 0.03 0.04 0.04 0.04 0.04 0.04 0.05 0.05 0.05 0.05 0.04 0.04 0.04 0.04 0.04
0.00 0.00 0.00 0.00 0.00 0.00 0.00 0.00 0.01 0.00 0.00 0.00 0.00 0.00 0.01 0.00 0.01 0.01 0.01 0.03 0.03 0.02 0.01 0.01 0.01 0.02 0.02 0.02 0.02 0.02 0.03 0.03 0.03 0.04 0.04 0.05 0.04 0.03 0.03 0.02 0.02 0.02 0.03 0.03
0.00 0.00 0.00 0.00 0.00 0.01 0.01 0.01 0.02 0.02 0.01 0.00 0.00 0.01 0.01 0.00 0.01 0.01 0.02 0.04 0.04 0.02 0.01 0.01 0.02 0.02 0.02 0.02 0.02 0.02 0.03 0.03 0.03 0.04 0.03 0.03 0.03 0.02 0.03 0.02 0.02 0.02 0.02 0.02
0.00 0.00 0.00 0.00 0.01 0.01 0.01 0.01 0.01 0.01 0.01 0.00 0.00 0.01 0.01 0.00 0.01 0.02 0.03 0.05 0.05 0.02 0.01 0.01 0.02 0.02 0.01 0.02 0.03 0.03 0.03 0.03 0.02 0.03 0.03 0.02 0.02 0.03 0.04 0.04 0.03 0.03 0.03 0.03
0.01 0.01 0.01 0.01 0.01 0.01 0.01 0.01 0.01 0.01 0.01 0.01 0.00 0.00 0.01 0.00 0.01 0.02 0.03 0.05 0.04 0.02 0.01 0.01 0.01 0.02 0.01 0.01 0.03 0.03 0.03 0.02 0.02 0.02 0.02 0.02 0.02 0.03 0.03 0.03 0.03 0.03 0.03 0.04
0.01 0.01 0.02 0.02 0.02 0.01 0.01 0.01 0.01 0.01 0.01 0.01 0.01 0.00 0.00 0.01 0.02 0.03 0.03 0.04 0.04 0.02 0.01 0.01 0.01 0.01 0.02 0.03 0.04 0.05 0.03 0.02 0.02 0.02 0.03 0.03 0.03 0.03 0.03 0.03 0.04 0.04 0.04 0.05
0.02 0.01 0.01 0.01 0.01 0.01 0.01 0.01 0.02 0.01 0.01 0.01 0.01 0.01 0.01 0.01 0.03 0.03 0.02 0.04 0.04 0.02 0.01 0.01 0.01 0.01 0.03 0.04 0.06 0.06 0.04 0.02 0.02 0.03 0.04 0.05 0.05 0.05 0.04 0.03 0.04 0.05 0.05 0.04
0.02 0.01 0.01 0.01 0.01 0.01 0.01 0.01 0.01 0.01 0.01 0.01 0.01 0.01 0.01 0.01 0.03 0.02 0.02 0.04 0.04 0.02 0.01 0.01 0.01 0.02 0.03 0.04 0.05 0.05 0.05 0.03 0.03 0.03 0.05 0.07 0.06 0.04 0.04 0.04 0.04 0.06 0.06 0.04
0.02 0.02 0.01 0.01 0.01 0.01 0.01 0.01 0.01 0.01 0.01 0.01 0.01 0.01 0.01 0.01 0.02 0.03 0.03 0.04 0.03 0.02 0.01 0.01 0.01 0.02 0.04 0.05 0.05 0.05 0.05 0.05 0.04 0.03 0.04 0.05 0.04 0.03 0.04 0.05 0.07 0.08 0.06 0.04
0.02 0.02 0.02 0.01 0.01 0.01 0.01 0.01 0.01 0.01 0.01 0.01 0.01 0.01 0.01 0.01 0.02 0.03 0.03 0.03 0.03 0.02 0.01 0.01 0.02 0.02 0.04 0.05 0.05 0.05 0.04 0.04 0.04 0.04 0.04 0.03 0.03 0.03 0.04 0.05 0.07 0.07 0.06 0.05
0.02 0.02 0.02 0.02 0.02 0.01 0.01 0.01 0.01 0.01 0.01 0.01 0.01 0.01 0.01 0.01 0.01 0.02 0.03 0.03 0.02 0.02 0.02 0.02 0.03 0.03 0.03 0.05 0.06 0.06 0.05 0.04 0.04 0.04 0.04 0.03 0.03 0.04 0.04 0.04 0.05 0.04 0.04 0.05
0.02 0.02 0.03 0.03 0.02 0.02 0.02 0.02 0.01 0.01 0.01 0.01 0.01 0.01 0.01 0.01 0.01 0.02 0.02 0.02 0.02 0.02 0.02 0.03 0.03 0.02 0.02 0.03 0.04 0.05 0.04 0.04 0.04 0.04 0.05 0.04 0.04 0.04 0.04 0.04 0.03 0.03 0.04 0.04
0.02 0.02 0.02 0.02 0.02 0.01 0.02 0.02 0.01 0.01 0.01 0.01 0.01 0.01 0.01 0.01 0.01 0.01 0.01 0.01 0.01 0.01 0.01 0.02 0.04 0.03 0.02 0.02 0.02 0.03 0.03 0.04 0.04 0.04 0.04 0.04 0.04 0.04 0.04 0.03 0.02 0.02 0.02 0.02
0.02 0.02 0.02 0.02 0.03 0.02 0.01 0.01 0.01 0.00 0.01 0.01 0.01 0.01 0.00 0.00 0.01 0.01 0.01 0.01 0.00 0.01 0.01 0.02 0.04 0.04 0.03 0.02 0.01 0.01 0.02 0.03 0.04 0.04 0.03 0.03 0.03 0.03 0.03 0.02 0.02 0.01 0.01 0.02
0.02 0.01 0.01 0.01 0.01 0.02 0.02 0.01 0.00 0.00 0.00 0.00 0.01 0.01 0.01 0.01 0.01 0.01 0.01 0.01 0.01 0.01 0.01 0.02 0.04 0.04 0.03 0.02 0.02 0.02 0.02 0.02 0.03 0.04 0.04 0.03 0.03 0.03 0.02 0.02 0.02 0.01 0.01 0.01
MSLP
1013.10 1013.18 1013.19 1013.12 1013.01 1012.85 1012.68 1012.49 1012.31 1012.12 1011.94 1011.76 1011.59 1011.42 1011.26 1011.11 1010.97 1010.86 1010.76 1010.70 1010.66 1010.64 1010.66 1010.69 1010.76 1010.85 1010.98 1011.15 1011.35 1011.61 1011.90 1012.23 1012.59 1012.96 1013.34 1013.71 1014.07 1014.41 1014.71 1014.99 1015.25 1015.49 1015.70 1015.90
1012.99 1013.07 1013.04 1012.93 1012.75 1012.53 1012.29 1012.06 1011.84 1011.65 1011.48 1011.33 1011.20 1011.07 1010.95 1010.83 1010.71 1010.59 1010.49 1010.40 1010.33 1010.29 1010.28 1010.30 1010.35 1010.44 1010.56 1010.72 1010.92 1011.16 1011.44 1011.76 1012.11 1012.49 1012.88 1013.28 1013.67 1014.05 1014.41 1014.74 1015.04 1015.32 1015.57 1015.79
1012.72 1012.79 1012.74 1012.59 1012.36 1012.08 1011.79 1011.51 1011.26 1011.06 1010.90 1010.78 1010.69 1010.62 1010.54 1010.46 1010.37 1010.27 1010.16 1010.06 1009.97 1009.90 1009.86 1009.85 1009.87 1009.94 1010.04 1010.19 1010.37 1010.60 1010.87 1011.18 1011.53 1011.91 1012.32 1012.75 1013.18 1013.61 1014.03 1014.42 1014.79 1015.11 1015.40 1015.66
1012.23 1012.30 1012.23 1012.04 1011.77 1011.44 1011.11 1010.79 1010.51 1010.31 1010.16 1010.08 1010.04 1010.03 1010.02 1009.99 1009.95 1009.88 1009.79 1009.69 1009.58 1009.48 1009.41 1009.37 1009.36 1009.39 1009.47 1009.59 1009.75 1009.95 1010.21 1010.51 1010.85 1011.24 1011.68 1012.14 1012.62 1013.11 1013.58 1014.04 1014.47 1014.85 1015.19 1015.48
1011.49 1011.54 1011.46 1011.26 1010.96 1010.60 1010.23 1009.90 1009.61 1009.41 1009.29 1009.24 1009.26 1009.31 1009.37 1009.41 1009.43 1009.40 1009.34 1009.25 1009.14 1009.02 1008.92 1008.84 1008.80 1008.79 1008.83 1008.92 1009.05 1009.23 1009.47 1009.76 1010.11 1010.52 1010.97 1011.47 1011.99 1012.53 1013.07 1013.58 1014.06 1014.50 1014.89 1015.23
1010.50 1010.53 1010.44 1010.23 1009.93 1009.57 1009.20 1008.86 1008.59 1008.40 1008.31 1008.30 1008.37 1008.48 1008.60 1008.71 1008.78 1008.80 1008.78 1008.70 1008.59 1008.47 1008.34 1008.23 1008.15 1008.10 1008.10 1008.16 1008.27 1008.43 1008.66 1008.95 1009.31 1009.73 1010.21 1010.74 1011.30 1011.89 1012.47 1013.03 1013.56 1014.04 1014.48 1014.86
1009.31 1009.32 1009.22 1009.03 1008.75 1008.41 1008.07 1007.76 1007.51 1007.36 1007.30 1007.33 1007.43 1007.59 1007.76 1007.91 1008.02 1008.08 1008.07 1008.01 1007.90 1007.76 1007.61 1007.47 1007.35 1007.27 1007.24 1007.27 1007.37 1007.52 1007.75 1008.06 1008.43 1008.88 1009.39 1009.95 1010.55 1011.16 1011.78 1012.38 1012.95 1013.47 1013.94 1014.35
1008.01 1007.98 1007.89 1007.73 1007.49 1007.22 1006.94 1006.68 1006.48 1006.37 1006.34 1006.39 1006.52 1006.69 1006.87 1007.04 1007.16 1007.22 1007.21 1007.14 1007.02 1006.86 1006.68 1006.51 1006.37 1006.27 1006.22 1006.24 1006.33 1006.50 1006.74 1007.07 1007.47 1007.95 1008.49 1009.09 1009.72 1010.37 1011.01 1011.64 1012.24 1012.79 1013.29 1013.75
1006.70 1006.65 1006.57 1006.45 1006.29 1006.10 1005.90 1005.72 1005.58 1005.51 1005.50 1005.56 1005.68 1005.84 1005.99 1006.13 1006.22 1006.25 1006.22 1006.12 1005.96 1005.77 1005.57 1005.38 1005.21 1005.09 1005.04 1005.06 1005.17 1005.36 1005.63 1005.99 1006.44 1006.96 1007.54 1008.17 1008.84 1009.52 1010.19 1010.85 1011.47 1012.06 1012.60 1013.09
1005.50 1005.43 1005.38 1005.32 1005.23 1005.14 1005.03 1004.93 1004.86 1004.82 1004.82 1004.87 1004.96 1005.05 1005.15 1005.22 1005.25 1005.21 1005.12 1004.97 1004.77 1004.55 1004.31 1004.10 1003.92 1003.80 1003.75 1003.79 1003.92 1004.15 1004.47 1004.88 1005.37 1005.94 1006.56 1007.24 1007.94 1008.66 1009.37 1010.06 1010.72 1011.34 1011.92 1012.46
1004.49 1004.42 1004.39 1004.39 1004.39 1004.39 1004.37 1004.34 1004.31 1004.29 1004.29 1004.30 1004.32 1004.34 1004.35 1004.33 1004.27 1004.15 1003.99 1003.78 1003.53 1003.27 1003.01 1002.78 1002.60 1002.49 1002.46 1002.52 1002.69 1002.96 1003.32 1003.78 1004.33 1004.94 1005.62 1006.34 1007.09 1007.85 1008.60 1009.34 1010.04 1010.71 1011.35 1011.94
1003.70 1003.63 1003.64 1003.70 1003.77 1003.83 1003.87 1003.89 1003.88 1003.86 1003.83 1003.79 1003.73 1003.66 1003.58 1003.46 1003.31 1003.12 1002.89 1002.62 1002.34 1002.05 1001.79 1001.55 1001.38 1001.28 1001.28 1001.37 1001.57 1001.88 1002.29 1002.79 1003.39 1004.05 1004.77 1005.54 1006.33 1007.14 1007.94 1008.73 1009.50 1010.23 1010.92 1011.57
1003.11 1003.06 1003.10 1003.18 1003.29 1003.38 1003.45 1003.48 1003.47 1003.42 1003.34 1003.24 1003.11 1002.97 1002.80 1002.61 1002.39 1002.15 1001.88 1001.59 1001.29 1001.00 1000.74 1000.52 1000.36 1000.28 1000.30 1000.43 1000.66 1001.00 1001.44 1001.98 1002.60 1003.31 1004.07 1004.87 1005.71 1006.56 1007.42 1008.27 1009.09 1009.89 1010.64 1011.36
1002.66 1002.62 1002.67 1002.76 1002.86 1002.95 1003.00 1003.01 1002.96 1002.87 1002.74 1002.59 1002.40 1002.21 1002.00 1001.77 1001.53 1001.27 1001.00 1000.71 1000.43 1000.16 999.93 999.73 999.60 999.55 999.59 999.74 999.99 1000.35 1000.81 1001.37 1002.02 1002.74 1003.53 1004.36 1005.24 1006.13 1007.03 1007.93 1008.82 1009.67 1010.49 1011.26
1002.25 1002.22 1002.26 1002.33 1002.39 1002.43 1002.43 1002.38 1002.28 1002.14 1001.97 1001.77 1001.57 1001.36 1001.15 1000.94 1000.72 1000.49 1000.26 1000.02 999.79 999.56 999.36 999.21 999.11 999.08 999.14 999.29 999.55 999.92 1000.39 1000.95 1001.61 1002.34 1003.14 1004.00 1004.89 1005.82 1006.75 1007.69 1008.62 1009.52 1010.39 1011.21
1001.82 1001.79 1001.79 1001.80 1001.80 1001.76 1001.68 1001.55 1001.39 1001.21 1001.01 1000.82 1000.62 1000.45 1000.28 1000.13 999.98 999.82 999.66 999.49 999.32 999.15 999.00 998.88 998.80 998.79 998.86 999.02 999.28 999.65 1000.12 1000.68 1001.34 1002.07 1002.88 1003.74 1004.65 1005.59 1006.54 1007.50 1008.45 1009.38 1010.27 1011.12
1001.33 1001.28 1001.22 1001.15 1001.06 1000.92 1000.75 1000.55 1000.34 1000.13 999.93 999.76 999.62 999.51 999.43 999.37 999.31 999.25 999.18 999.09 998.98 998.86 998.75 998.65 998.59 998.59 998.66 998.82 999.08 999.45 999.92 1000.49 1001.15 1001.88 1002.70 1003.56 1004.47 1005.40 1006.36 1007.32 1008.27 1009.19 1010.09 1010.95
1000.76 1000.66 1000.54 1000.38 1000.19 999.96 999.71 999.45 999.21 999.00 998.83 998.72 998.66 998.64 998.67 998.71 998.75 998.78 998.79 998.75 998.69 998.60 998.51 998.42 998.36 998.36 998.43 998.59 998.86 999.23 999.71 1000.30 1000.97 1001.72 1002.54 1003.41 1004.31 1005.24 1006.18 1007.12 1008.05 1008.95 1009.83 1010.67
1000.13 999.98 999.78 999.53 999.24 998.94 998.63 998.35 998.11 997.92 997.82 997.78 997.82 997.91 998.03 998.17 998.30 998.39 998.45 998.44 998.39 998.30 998.19 998.09 998.02 998.01 998.08 998.25 998.53 998.93 999.44 1000.06 1000.77 1001.55 1002.39 1003.27 1004.18 1005.09 1006.01 1006.91 1007.81 1008.67 1009.52 1010.33
999.48 999.26 998.98 998.66 998.31 997.95 997.62 997.34 997.13 997.00 996.97 997.03 997.17 997.35 997.57 997.78 997.95 998.08 998.13 998.12 998.04 997.92 997.77 997.63 997.54 997.51 997.59 997.78 998.09 998.54 999.10 999.77 1000.54 1001.37 1002.24 1003.15 1004.06 1004.97 1005.86 1006.73 1007.58 1008.40 1009.21 1009.99
998.83 998.54 998.20 997.82 997.43 997.05 996.73 996.48 996.33 996.29 996.35 996.50 996.72 996.99 997.26 997.51 997.69 997.80 997.83 997.77 997.63 997.45 997.25 997.07 996.94 996.91 996.99 997.21 997.58 998.08 998.72 999.46 1000.29 1001.18 1002.11 1003.04 1003.97 1004.87 1005.75 1006.59 1007.40 1008.19 1008.95 1009.71
998.20 997.85 997.45 997.04 996.63 996.27 995.99 995.80 995.73 995.77 995.92 996.16 996.46 996.78 997.08 997.32 997.49 997.56 997.53 997.40 997.19 996.94 996.68 996.46 996.31 996.28 996.38 996.64 997.07 997.64 998.35 999.17 1000.07 1001.03 1002.00 1002.97 1003.91 1004.82 1005.69 1006.51 1007.29 1008.05 1008.80 1009.54
997.60 997.20 996.76 996.33 995.94 995.62 995.39 995.27 995.28 995.41 995.64 995.95 996.30 996.65 996.96 997.19 997.32 997.34 997.24 997.04 996.76 996.46 996.15 995.91 995.75 995.73 995.87 996.18 996.66 997.30 998.08 998.96 999.92 1000.93 1001.94 1002.94 1003.90 1004.81 1005.67 1006.49 1007.26 1008.02 1008.76 1009.51
997.04 996.59 996.14 995.71 995.34 995.06 994.90 994.86 994.94 995.15 995.45 995.81 996.20 996.56 996.86 997.07 997.16 997.13 996.98 996.73 996.42 996.08 995.77 995.52 995.39 995.39 995.57 995.93 996.46 997.15 997.97 998.90 999.89 1000.92 1001.95 1002.95 1003.92 1004.83 1005.70 1006.52 1007.30 1008.06 1008.82 1009.59
996.54 996.06 995.60 995.18 994.84 994.61 994.51 994.53 994.68 994.95 995.30 995.70 996.10 996.47 996.76 996.95 997.02 996.97 996.80 996.54 996.23 995.90 995.61 995.39 995.30 995.35 995.57 995.97 996.53 997.25 998.08 999.01 1000.00 1001.02 1002.04 1003.03 1003.98 1004.89 1005.75 1006.58 1007.38 1008.17 1008.96 1009.77
996.15 995.65 995.19 994.79 994.48 994.29 994.22 994.30 994.49 994.79 995.17 995.59 996.00 996.37 996.66 996.85 996.92 996.88 996.73 996.50 996.23 995.96 995.73 995.59 995.55 995.66 995.92 996.35 996.92 997.63 998.45 999.34 1000.29 1001.26 1002.22 1003.17 1004.09 1004.98 1005.84 1006.68 1007.50 1008.32 1009.16 1010.02
995.93 995.42 994.96 994.58 994.29 994.13 994.09 994.19 994.41 994.72 995.11 995.53 995.94 996.31 996.61 996.81 996.91 996.91 996.82 996.67 996.48 996.30 996.16 996.10 996.15 996.31 996.62 997.06 997.62 998.30 999.06 999.89 1000.76 1001.65 1002.54 1003.43 1004.30 1005.15 1006.00 1006.84 1007.69 1008.55 1009.43 1010.33
Thickness
5714 5717 5716 5713 5712 5712 5710 5712 5709 5709 5707 5704 5703 5699 5697 5695 5692 5689 5686 5684 5682 5678 5677 5676 5675 5674 5674 5674 5675 5674 5674 5673 5672 5671 5670 5669 5668 5668 5667 5667 5667 5666 5666 5666
5701 5706 5705 5702 5704 5704 5703 5704 5703 5701 5697 5698 5696 5693 5688 5685 5682 5678 5676 5675 5673 5671 5669 5667 5666 5666 5666 5665 5665 5665 5664 5664 5664 5663 5662 5661 5660 5660 5659 5659 5659 5659 5660 5660
5693 5698 5694 5689 5698 5698 5696 5697 5695 5691 5690 5689 5683 5680 5678 5676 5673 5670 5667 5665 5663 5662 5661 5660 5659 5658 5658 5657 5656 5656 5655 5655 5655 5655 5654 5653 5653 5652 5651 5651 5651 5650 5651 5652
5689 5682 5670 5689 5698 5695 5688 5686 5687 5684 5682 5679 5675 5673 5671 5669 5665 5661 5659 5657 5655 5654 5653 5652 5652 5651 5650 5650 5648 5648 5647 5647 5647 5647 5646 5646 5645 5644 5643 5643 5643 5643 5643 5644
5680 5676 5678 5683 5687 5686 5679 5676 5679 5675 5672 5671 5669 5665 5663 5662 5658 5654 5652 5650 5648 5648 5647 5645 5644 5643 5643 5642 5642 5641 5640 5640 5640 5639 5639 5638 5637 5637 5636 5636 5636 5636 5636 5637
5671 5665 5664 5674 5681 5682 5675 5666 5673 5670 5665 5663 5661 5656 5655 5653 5650 5647 5645 5644 5643 5642 5641 5639 5637 5636 5636 5635 5635 5634 5634 5633 5633 5632 5631 5631 5630 5630 5629 5628 5629 5629 5630 5630
5664 5661 5668 5672 5675 5672 5659 5661 5665 5664 5660 5657 5653 5649 5648 5645 5642 5640 5638 5637 5636 5635 5633 5632 5631 5629 5628 5627 5627 5627 5627 5626 5624 5624 5624 5624 5624 5623 5622 5622 5622 5622 5623 5624
5660 5655 5656 5666 5666 5660 5658 5661 5658 5655 5653 5649 5645 5642 5640 5637 5634 5632 5631 5630 5629 5626 5625 5624 5623 5621 5620 5619 5620 5620 5619 5619 5617 5617 5617 5618 5617 5616 5616 5617 5617 5617 5616 5616
5659 5656 5658 5660 5658 5658 5657 5652 5650 5648 5646 5642 5638 5636 5633 5631 5628 5626 5625 5623 5622 5620 5618 5618 5616 5615 5613 5613 5613 5613 5612 5611 5610 5610 5610 5610 5610 5610 5610 5610 5611 5612 5612 5612
5651 5653 5652 5652 5652 5651 5649 5646 5644 5642 5639 5637 5633 5631 5628 5625 5622 5620 5618 5617 5615 5613 5612 5611 5610 5609 5608 5608 5607 5606 5605 5604 5604 5604 5604 5603 5602 5603 5603 5604 5604 5605 5606 5606
5643 5645 5645 5646 5645 5644 5642 5641 5639 5637 5634 5631 5627 5624 5621 5618 5615 5613 5612 5611 5609 5606 5605 5605 5604 5603 5603 5602 5600 5599 5599 5599 5598 5598 5598 5596 5596 5595 5596 5595 5595 5595 5597 5598
5639 5641 5638 5637 5639 5638 5634 5632 5631 5629 5626 5624 5621 5617 5615 5613 5610 5608 5606 5604 5603 5601 5600 5599 5598 5597 5597 5596 5594 5593 5592 5592 5593 5593 5592 5592 5591 5590 5587 5587 5585 5584 5583 5584
5636 5637 5636 5634 5633 5631 5628 5626 5625 5622 5619 5616 5614 5612 5609 5607 5605 5602 5600 5598 5598 5596 5595 5594 5592 5591 5591 5590 5589 5587 5586 5586 5587 5587 5587 5586 5586 5585 5585 5582 5579 5578 5577 5577
5629 5627 5625 5625 5624 5624 5622 5620 5618 5616 5613 5610 5608 5606 5604 5602 5599 5597 5595 5594 5593 5591 5590 5589 5587 5586 5585 5585 5583 5583 5582 5581 5581 5581 5582 5581 5581 5581 5581 5581 5580 5579 5575 5572
5622 5621 5620 5621 5619 5617 5615 5613 5610 5608 5606 5604 5603 5601 5598 5596 5594 5592 5591 5589 5587 5586 5585 5584 5582 5580 5580 5579 5578 5577 5577 5577 5577 5577 5577 5576 5576 5576 5576 5575 5575 5575 5574 5571
5617 5617 5615 5613 5611 5610 5609 5607 5605 5603 5602 5599 5597 5595 5594 5592 5590 5588 5586 5584 5582 5580 5579 5578 5576 5575 5575 5574 5573 5572 5571 5568 5568 5571 5571 5570 5570 5570 5570 5570 5570 5571 5571 5570
5610 5609 5608 5606 5606 5605 5605 5603 5601 5600 5597 5595 5593 5591 5589 5587 5585 5583 5581 5580 5577 5575 5573 5572 5571 5570 5570 5569 5568 5569 5568 5566 5561 5564 5565 5565 5566 5566 5567 5567 5566 5566 5566 5565
5607 5606 5605 5603 5603 5601 5600 5598 5597 5594 5592 5591 5589 5586 5584 5582 5579 5577 5576 5575 5572 5571 5569 5567 5566 5565 5565 5563 5562 5563 5563 5562 5561 5561 5561 5561 5562 5563 5563 5563 5562 5562 5562 5560
5602 5600 5599 5599 5598 5597 5595 5593 5591 5589 5587 5585 5583 5580 5579 5577 5575 5573 5572 5569 5567 5566 5564 5563 5558 5559 5559 5558 5556 5557 5559 5559 5558 5557 5557 5555 5557 5558 5558 5558 5558 5557 5557 5555
5595 5594 5593 5592 5592 5591 5589 5587 5585 5583 5582 5580 5577 5575 5573 5571 5569 5568 5566 5564 5564 5561 5559 5557 5556 5556 5555 5554 5551 5555 5555 5554 5554 5554 5553 5553 5553 5553 5554 5553 5553 5552 5551 5550
5588 5587 5586 5585 5584 5583 5582 5580 5579 5577 5576 5575 5572 5570 5568 5566 5565 5563 5561 5561 5558 5555 5554 5551 5552 5552 5551 5549 5547 5551 5551 5551 5551 5550 5550 5549 5549 5549 5549 5548 5547 5546 5545 5544
5581 5580 5578 5578 5577 5575 5574 5573 5572 5571 5569 5568 5566 5565 5563 5561 5560 5558 5556 5555 5553 5547 5549 5551 5549 5545 5545 5543 5547 5549 5549 5548 5547 5546 5545 5544 5544 5544 5544 5543 5542 5541 5540 5539
5574 5573 5572 5570 5570 5569 5568 5566 5565 5564 5563 5561 5559 5558 5557 5556 5556 5555 5553 5551 5549 5542 5544 5546 5541 5538 5536 5541 5544 5545 5545 5544 5543 5542 5541 5540 5540 5540 5539 5538 5538 5537 5536 5535
5568 5567 5566 5565 5564 5563 5561 5561 5560 5558 5557 5555 5555 5553 5551 5551 5551 5551 5549 5544 5540 5538 5541 5539 5535 5534 5532 5538 5540 5540 5539 5539 5538 5537 5537 5536 5536 5535 5535 5534 5533 5532 5531 5530
5562 5561 5561 5559 5559 5559 5557 5556 5555 5552 5551 5552 5551 5550 5549 5548 5547 5547 5545 5543 5538 5536 5539 5537 5532 5531 5533 5537 5536 5536 5535 5535 5534 5532 5531 5531 5531 5531 5531 5530 5529 5527 5526 5525
5557 5557 5556 5555 5555 5554 5555 5553 5551 5549 5548 5547 5547 5546 5546 5545 5543 5542 5541 5540 5538 5534 5535 5536 5535 5532 5534 5534 5533 5532 5531 5530 5529 5528 5526 5526 5526 5526 5526 5525 5524 5523 5522 5521
5553 5553 5552 5553 5552 5552 5551 5550 5548 5546 5545 5544 5543 5543 5543 5542 5540 5539 5538 5537 5536 5536 5535 5534 5534 5533 5532 5531 5529 5527 5526 5526 5524 5523 5522 5521 5521 5520 5520 5519 5518 5518 5517 5516